User: anonymous   Login
Location: Katowice
(50.2611°N, 19.0242°E)
Time: 10:26:24
(UTC+02:00)
Language:

S-56A Canister/Altair - Orbit

View from above orbital plane
View from above orbital plane
View from above satellite
View from above satellite

Ground track
Ground track

The orbit data is extracted from the following two-line orbital elements,

1    82U 61004B   19204.84158260 +.00000056 +00000-0 +74165-4 0  9999
2    82 038.8660 338.8607 1175489 292.7250 055.3475 12.26043862767351
Epoch (UTC): 23 July 2019 20:11:52
Eccentricity: 0.1175489
inclination: 38.8660°
perigee height: 632 km
apogee height: 2500 km
right ascension of ascending node: 338.8607°
argument of perigee: 292.7250°
revolutions per day: 12.26043862
mean anomaly at epoch: 55.3475°
orbit number at epoch: 76735

The dashed part of the orbit path shows where the satellite is in the earth's shadow,  

DLR